Time,TemperatureF,DewpointF,PressureIn,WindDirection,WindDirectionDegrees,WindSpeedMPH,WindSpeedGustMPH,Humidity,HourlyPrecipIn,Conditions,Clouds,dailyrainin,SoftwareType,DateUTC
2013-08-10 00:10:00,82.4,71.0,30.12,ENE,75,0.0,-999.0,69,-99.99,,,0.00,weatherlink.com 1.10,2013-08-10 04:10:00,
2013-08-10 00:25:00,82.0,71.0,30.12,East,84,0.0,-999.0,69,-99.99,,,0.00,weatherlink.com 1.10,2013-08-10 04:25:00,
2013-08-10 00:40:00,81.8,71.0,30.12,East,87,3.0,-999.0,69,-99.99,,,0.00,weatherlink.com 1.10,2013-08-10 04:40:00,
2013-08-10 00:55:00,81.8,71.0,30.11,SE,140,0.0,-999.0,69,-99.99,,,0.00,weatherlink.com 1.10,2013-08-10 04:55:00,
2013-08-10 01:10:00,81.8,71.0,30.11,ENE,74,0.0,-999.0,70,-99.99,,,0.00,weatherlink.com 1.10,2013-08-10 05:10:00,
2013-08-10 01:25:00,82.0,71.0,30.11,East,82,0.0,-999.0,70,-99.99,,,0.00,weatherlink.com 1.10,2013-08-10 05:25:00,
2013-08-10 01:40:00,82.0,71.0,30.11,East,98,0.0,-999.0,70,-99.99,,,0.00,weatherlink.com 1.10,2013-08-10 05:40:00,
2013-08-10 01:55:00,81.8,71.0,30.11,ENE,75,1.0,-999.0,70,-99.99,,,0.00,weatherlink.com 1.10,2013-08-10 05:55:00,
2013-08-10 02:10:00,81.6,71.0,30.11,ENE,75,1.0,-999.0,70,-99.99,,,0.00,weatherlink.com 1.10,2013-08-10 06:10:00,
2013-08-10 02:25:00,81.4,71.0,30.11,ENE,66,0.0,-999.0,70,-99.99,,,0.00,weatherlink.com 1.10,2013-08-10 06:25:00,
2013-08-10 02:40:00,81.4,71.0,30.11,ENE,66,0.0,-999.0,70,-99.99,,,0.00,weatherlink.com 1.10,2013-08-10 06:40:00,
2013-08-10 02:55:00,81.4,71.0,30.11,ENE,72,0.0,-999.0,71,-99.99,,,0.00,weatherlink.com 1.10,2013-08-10 06:55:00,
2013-08-10 03:10:00,81.4,71.0,30.11,ENE,65,0.0,-999.0,71,-99.99,,,0.00,weatherlink.com 1.10,2013-08-10 07:10:00,
2013-08-10 03:25:00,81.2,71.0,30.11,East,80,1.0,-999.0,71,-99.99,,,0.00,weatherlink.com 1.10,2013-08-10 07:25:00,
2013-08-10 03:40:00,81.1,71.0,30.11,ENE,74,3.0,-999.0,71,-99.99,,,0.00,weatherlink.com 1.10,2013-08-10 07:40:00,
2013-08-10 03:55:00,81.1,71.0,30.11,ENE,76,0.0,-999.0,71,-99.99,,,0.00,weatherlink.com 1.10,2013-08-10 07:55:00,
2013-08-10 04:10:00,80.9,71.0,30.11,ENE,75,0.0,-999.0,72,-99.99,,,0.00,weatherlink.com 1.10,2013-08-10 08:10:00,
2013-08-10 04:25:00,80.9,71.0,30.11,ENE,61,0.0,-999.0,72,-99.99,,,0.00,weatherlink.com 1.10,2013-08-10 08:25:00,
2013-08-10 04:41:00,80.9,71.0,30.10,ENE,66,0.0,-999.0,72,-99.99,,,0.00,weatherlink.com 1.10,2013-08-10 08:41:00,
2013-08-10 04:56:00,80.7,71.0,30.10,ENE,69,0.0,-999.0,73,-99.99,,,0.00,weatherlink.com 1.10,2013-08-10 08:56:00,
2013-08-10 05:11:00,80.5,71.0,30.11,ENE,69,0.0,-999.0,73,-99.99,,,0.00,weatherlink.com 1.10,2013-08-10 09:11:00,
2013-08-10 05:26:00,80.3,71.0,30.10,ENE,69,0.0,-999.0,73,-99.99,,,0.00,weatherlink.com 1.10,2013-08-10 09:26:00,
2013-08-10 05:41:00,80.3,71.0,30.11,ENE,69,0.0,-999.0,74,-99.99,,,0.00,weatherlink.com 1.10,2013-08-10 09:41:00,
2013-08-10 05:56:00,80.1,71.0,30.11,ENE,69,0.0,-999.0,74,-99.99,,,0.00,weatherlink.com 1.10,2013-08-10 09:56:00,
2013-08-10 06:11:00,79.8,71.0,30.11,ENE,69,0.0,-999.0,74,-99.99,,,0.00,weatherlink.com 1.10,2013-08-10 10:11:00,
2013-08-10 06:26:00,79.6,71.0,30.12,ENE,69,0.0,-999.0,75,-99.99,,,0.00,weatherlink.com 1.10,2013-08-10 10:26:00,
2013-08-10 06:41:00,79.4,71.0,30.12,ENE,69,0.0,-999.0,76,-99.99,,,0.00,weatherlink.com 1.10,2013-08-10 10:41:00,
2013-08-10 06:56:00,79.0,71.0,30.12,ENE,69,0.0,-999.0,77,-99.99,,,0.00,weatherlink.com 1.10,2013-08-10 10:56:00,
2013-08-10 07:11:00,78.8,71.0,30.12,ENE,69,0.0,-999.0,77,-99.99,,,0.00,weatherlink.com 1.10,2013-08-10 11:11:00,
2013-08-10 07:26:00,78.6,72.0,30.13,ENE,69,0.0,-999.0,79,-99.99,,,0.00,weatherlink.com 1.10,2013-08-10 11:26:00,
2013-08-10 07:41:00,78.6,72.0,30.13,ENE,69,0.0,-999.0,79,-99.99,,,0.00,weatherlink.com 1.10,2013-08-10 11:41:00,
2013-08-10 07:56:00,78.6,72.0,30.14,ENE,69,0.0,-999.0,80,-99.99,,,0.00,weatherlink.com 1.10,2013-08-10 11:56:00,
2013-08-10 08:11:00,79.2,73.0,30.14,ENE,69,0.0,-999.0,80,-99.99,,,0.00,weatherlink.com 1.10,2013-08-10 12:11:00,
2013-08-10 08:26:00,79.6,73.0,30.14,SE,138,0.0,-999.0,79,-99.99,,,0.00,weatherlink.com 1.10,2013-08-10 12:26:00,
2013-08-10 08:41:00,80.1,73.0,30.14,SE,138,0.0,-999.0,78,-99.99,,,0.00,weatherlink.com 1.10,2013-08-10 12:41:00,
2013-08-10 08:56:00,80.5,73.0,30.15,SE,133,0.0,-999.0,78,-99.99,,,0.00,weatherlink.com 1.10,2013-08-10 12:56:00,
2013-08-10 09:11:00,81.1,73.0,30.15,SE,132,2.0,-999.0,77,-99.99,,,0.00,weatherlink.com 1.10,2013-08-10 13:11:00,
2013-08-10 09:26:00,81.4,73.0,30.15,ESE,122,0.0,-999.0,75,-99.99,,,0.00,weatherlink.com 1.10,2013-08-10 13:26:00,
2013-08-10 09:41:00,81.8,72.0,30.15,ESE,103,0.0,-999.0,72,-99.99,,,0.00,weatherlink.com 1.10,2013-08-10 13:41:00,
2013-08-10 09:56:00,82.0,71.0,30.15,East,101,1.0,-999.0,69,-99.99,,,0.00,weatherlink.com 1.10,2013-08-10 13:56:00,
2013-08-10 10:11:00,82.4,71.0,30.15,East,95,0.0,-999.0,69,-99.99,,,0.00,weatherlink.com 1.10,2013-08-10 14:11:00,
2013-08-10 10:26:00,83.0,70.0,30.15,ESE,109,0.0,-999.0,66,-99.99,,,0.00,weatherlink.com 1.10,2013-08-10 14:26:00,
2013-08-10 10:41:00,83.6,71.0,30.16,East,97,0.0,-999.0,66,-99.99,,,0.00,weatherlink.com 1.10,2013-08-10 14:41:00,
2013-08-10 10:56:00,84.9,72.0,30.16,South,170,1.0,-999.0,65,-99.99,,,0.00,weatherlink.com 1.10,2013-08-10 14:56:00,
2013-08-10 11:11:00,85.7,72.0,30.16,WNW,287,2.0,-999.0,64,-99.99,,,0.00,weatherlink.com 1.10,2013-08-10 15:11:00,
2013-08-10 11:26:00,85.9,72.0,30.17,NNE,16,1.0,-999.0,63,-99.99,,,0.00,weatherlink.com 1.10,2013-08-10 15:26:00,
2013-08-10 11:41:00,86.5,72.0,30.17,NNE,33,1.0,-999.0,62,-99.99,,,0.00,weatherlink.com 1.10,2013-08-10 15:41:00,
2013-08-10 11:56:00,87.6,71.0,30.17,ENE,61,1.0,-999.0,59,-99.99,,,0.00,weatherlink.com 1.10,2013-08-10 15:56:00,
2013-08-10 12:11:00,88.0,72.0,30.17,WNW,294,1.0,-999.0,59,-99.99,,,0.00,weatherlink.com 1.10,2013-08-10 16:11:00,
2013-08-10 12:26:00,88.8,71.0,30.17,SE,143,1.0,-999.0,56,-99.99,,,0.00,weatherlink.com 1.10,2013-08-10 16:26:00,
2013-08-10 12:41:00,89.5,72.0,30.17,East,93,0.0,-999.0,57,-99.99,,,0.00,weatherlink.com 1.10,2013-08-10 16:41:00,
2013-08-10 12:56:00,90.3,71.0,30.17,North,4,1.0,-999.0,54,-99.99,,,0.00,weatherlink.com 1.10,2013-08-10 16:56:00,
2013-08-10 13:11:00,90.1,72.0,30.17,ENE,60,4.0,-999.0,55,-99.99,,,0.00,weatherlink.com 1.10,2013-08-10 17:11:00,
2013-08-10 13:26:00,90.1,72.0,30.17,NNW,345,1.0,-999.0,55,-99.99,,,0.00,weatherlink.com 1.10,2013-08-10 17:26:00,
2013-08-10 13:41:00,89.5,72.0,30.17,North,355,1.0,-999.0,56,-99.99,,,0.00,weatherlink.com 1.10,2013-08-10 17:41:00,
2013-08-10 13:56:00,89.3,72.0,30.17,NE,47,2.0,-999.0,56,-99.99,,,0.00,weatherlink.com 1.10,2013-08-10 17:56:00,
2013-08-10 14:11:00,89.5,72.0,30.16,ENE,72,1.0,-999.0,56,-99.99,,,0.00,weatherlink.com 1.10,2013-08-10 18:11:00,
2013-08-10 14:26:00,90.3,72.0,30.16,ENE,62,1.0,-999.0,55,-99.99,,,0.00,weatherlink.com 1.10,2013-08-10 18:26:00,
2013-08-10 14:41:00,91.0,72.0,30.16,East,85,1.0,-999.0,53,-99.99,,,0.00,weatherlink.com 1.10,2013-08-10 18:41:00,
2013-08-10 14:56:00,91.2,72.0,30.15,NW,304,1.0,-999.0,53,-99.99,,,0.00,weatherlink.com 1.10,2013-08-10 18:56:00,
2013-08-10 15:11:00,91.0,72.0,30.15,NNE,27,0.0,-999.0,54,-99.99,,,0.00,weatherlink.com 1.10,2013-08-10 19:11:00,
2013-08-10 15:26:00,90.7,71.0,30.14,WNW,300,0.0,-999.0,53,-99.99,,,0.00,weatherlink.com 1.10,2013-08-10 19:26:00,
2013-08-10 15:41:00,91.2,71.0,30.14,NE,49,0.0,-999.0,51,-99.99,,,0.00,weatherlink.com 1.10,2013-08-10 19:41:00,
2013-08-10 15:56:00,90.7,70.0,30.14,SE,133,2.0,-999.0,51,-99.99,,,0.00,weatherlink.com 1.10,2013-08-10 19:56:00,
2013-08-10 16:11:00,91.2,71.0,30.14,SE,139,0.0,-999.0,51,-99.99,,,0.00,weatherlink.com 1.10,2013-08-10 20:11:00,
2013-08-10 16:26:00,91.0,70.0,30.13,ENE,76,1.0,-999.0,50,-99.99,,,0.00,weatherlink.com 1.10,2013-08-10 20:26:00,
2013-08-10 16:41:00,89.7,71.0,30.12,East,85,1.0,-999.0,54,-99.99,,,0.00,weatherlink.com 1.10,2013-08-10 20:41:00,
2013-08-10 16:56:00,88.6,70.0,30.12,ESE,115,1.0,-999.0,54,-99.99,,,0.00,weatherlink.com 1.10,2013-08-10 20:56:00,
2013-08-10 17:11:00,88.4,69.0,30.12,NNE,33,0.0,-999.0,53,-99.99,,,0.00,weatherlink.com 1.10,2013-08-10 21:11:00,
2013-08-10 17:26:00,88.0,69.0,30.12,ENE,66,2.0,-999.0,53,-99.99,,,0.00,weatherlink.com 1.10,2013-08-10 21:26:00,
2013-08-10 17:41:00,87.8,69.0,30.12,East,90,2.0,-999.0,54,-99.99,,,0.00,weatherlink.com 1.10,2013-08-10 21:41:00,
2013-08-10 17:56:00,87.2,69.0,30.12,ENE,70,0.0,-999.0,54,-99.99,,,0.00,weatherlink.com 1.10,2013-08-10 21:56:00,
2013-08-10 18:11:00,87.0,67.0,30.12,NNE,24,0.0,-999.0,52,-99.99,,,0.00,weatherlink.com 1.10,2013-08-10 22:11:00,
2013-08-10 18:26:00,86.7,66.0,30.12,East,97,0.0,-999.0,50,-99.99,,,0.00,weatherlink.com 1.10,2013-08-10 22:26:00,
2013-08-10 18:41:00,86.5,67.0,30.11,NE,37,2.0,-999.0,52,-99.99,,,0.00,weatherlink.com 1.10,2013-08-10 22:41:00,
2013-08-10 18:56:00,86.5,65.0,30.12,NE,43,1.0,-999.0,49,-99.99,,,0.00,weatherlink.com 1.10,2013-08-10 22:56:00,
2013-08-10 19:11:00,86.7,66.0,30.12,NNE,26,0.0,-999.0,51,-99.99,,,0.00,weatherlink.com 1.10,2013-08-10 23:11:00,
2013-08-10 19:26:00,86.3,68.0,30.12,ENE,60,1.0,-999.0,55,-99.99,,,0.00,weatherlink.com 1.10,2013-08-10 23:26:00,
2013-08-10 19:42:00,85.9,69.0,30.12,East,87,0.0,-999.0,57,-99.99,,,0.00,weatherlink.com 1.10,2013-08-10 23:42:00,
2013-08-10 19:57:00,84.9,69.0,30.12,ESE,103,1.0,-999.0,60,-99.99,,,0.00,weatherlink.com 1.10,2013-08-10 23:57:00,
2013-08-10 20:12:00,84.3,69.0,30.11,ENE,68,0.0,-999.0,61,-99.99,,,0.00,weatherlink.com 1.10,2013-08-11 00:12:00,
2013-08-10 20:27:00,84.0,70.0,30.11,ESE,108,0.0,-999.0,62,-99.99,,,0.00,weatherlink.com 1.10,2013-08-11 00:27:00,
2013-08-10 20:42:00,83.8,70.0,30.12,ENE,60,0.0,-999.0,63,-99.99,,,0.00,weatherlink.com 1.10,2013-08-11 00:42:00,
2013-08-10 20:57:00,83.8,70.0,30.12,ENE,78,6.0,-999.0,64,-99.99,,,0.00,weatherlink.com 1.10,2013-08-11 00:57:00,
2013-08-10 21:12:00,83.4,71.0,30.12,East,89,1.0,-999.0,66,-99.99,,,0.00,weatherlink.com 1.10,2013-08-11 01:12:00,
2013-08-10 21:27:00,83.4,71.0,30.13,ENE,67,0.0,-999.0,67,-99.99,,,0.00,weatherlink.com 1.10,2013-08-11 01:27:00,
2013-08-10 21:42:00,83.4,71.0,30.14,ENE,69,0.0,-999.0,67,-99.99,,,0.00,weatherlink.com 1.10,2013-08-11 01:42:00,
2013-08-10 21:57:00,83.4,72.0,30.14,East,93,0.0,-999.0,68,-99.99,,,0.00,weatherlink.com 1.10,2013-08-11 01:57:00,
2013-08-10 22:12:00,83.2,72.0,30.14,ENE,71,0.0,-999.0,68,-99.99,,,0.00,weatherlink.com 1.10,2013-08-11 02:12:00,
2013-08-10 22:27:00,83.0,72.0,30.15,ENE,60,0.0,-999.0,69,-99.99,,,0.00,weatherlink.com 1.10,2013-08-11 02:27:00,
2013-08-10 22:42:00,83.0,72.0,30.15,East,89,0.0,-999.0,69,-99.99,,,0.00,weatherlink.com 1.10,2013-08-11 02:42:00,
2013-08-10 22:57:00,83.0,72.0,30.15,ENE,70,0.0,-999.0,70,-99.99,,,0.00,weatherlink.com 1.10,2013-08-11 02:57:00,
2013-08-10 23:12:00,83.0,72.0,30.15,East,87,0.0,-999.0,70,-99.99,,,0.00,weatherlink.com 1.10,2013-08-11 03:12:00,
2013-08-10 23:42:00,82.8,73.0,30.15,ESE,118,0.0,-999.0,71,-99.99,,,0.00,weatherlink.com 1.10,2013-08-11 03:42:00,
2013-08-10 23:57:00,82.8,73.0,30.15,East,85,0.0,-999.0,71,-99.99,,,0.00,weatherlink.com 1.10,2013-08-11 03:57:00,